LVMGN SAZM-SADF

Flight info

Callsign LVMGN
Flight time 0h 55m
Altitude 25000
Route PULPA1G PULPA DCT TENIL DCT PTA DCT FDO
Aircraft SF50/L-SDGRWY/L

Departure

Time 2026-05-07 20:20
Airport Ástor Piazzola International Airport (SAZM)

Arrival

Time 2026-05-07 21:16
Airport San Fernando Airport (SADF)
Time Latitude Longitude Altitude Speed Heading
2026-05-07 20:08 -37.93463 -57.58116 73 ft 0 kts 223°
2026-05-07 20:14 -37.93464 -57.58122 73 ft 1 kts 288°
2026-05-07 20:14 -37.93458 -57.58122 73 ft 1 kts 33°
2026-05-07 20:14 -37.93447 -57.58102 73 ft 4 kts 68°
2026-05-07 20:15 -37.93441 -57.58062 73 ft 5 kts 111°
2026-05-07 20:15 -37.93450 -57.58011 73 ft 6 kts 80°
2026-05-07 20:15 -37.93424 -57.57947 73 ft 11 kts 53°
2026-05-07 20:15 -37.93447 -57.57836 73 ft 17 kts 116°
2026-05-07 20:16 -37.93510 -57.57684 73 ft 21 kts 121°
2026-05-07 20:16 -37.93583 -57.57516 73 ft 22 kts 117°
2026-05-07 20:16 -37.93660 -57.57338 73 ft 22 kts 116°
2026-05-07 20:16 -37.93737 -57.57167 73 ft 21 kts 123°
2026-05-07 20:17 -37.93806 -57.57007 73 ft 19 kts 123°
2026-05-07 20:17 -37.93869 -57.56872 73 ft 16 kts 119°
2026-05-07 20:17 -37.93919 -57.56755 73 ft 14 kts 120°
2026-05-07 20:17 -37.93964 -57.56654 73 ft 12 kts 118°
2026-05-07 20:18 -37.94002 -57.56566 73 ft 10 kts 121°
2026-05-07 20:18 -37.94032 -57.56490 73 ft 9 kts 98°
2026-05-07 20:18 -37.94013 -57.56410 73 ft 10 kts 62°
2026-05-07 20:18 -37.93956 -57.56330 73 ft 14 kts
2026-05-07 20:19 -37.93914 -57.56366 73 ft 0 kts 306°
2026-05-07 20:19 -37.93819 -57.56556 73 ft 62 kts 303°
2026-05-07 20:20 -37.93468 -57.57217 202 ft 106 kts 299°
2026-05-07 20:20 -37.93070 -57.58112 521 ft 126 kts 296°
2026-05-07 20:20 -37.92689 -57.59154 889 ft 140 kts 291°
2026-05-07 20:20 -37.92313 -57.60387 1144 ft 159 kts 288°
2026-05-07 20:21 -37.91994 -57.61757 1454 ft 168 kts 283°
2026-05-07 20:21 -37.91549 -57.63195 1687 ft 190 kts 304°
2026-05-07 20:21 -37.90742 -57.64614 2004 ft 208 kts 303°
2026-05-07 20:21 -37.89911 -57.66180 2314 ft 222 kts 302°
2026-05-07 20:22 -37.89052 -57.67867 2623 ft 234 kts 301°
2026-05-07 20:22 -37.88162 -57.69641 2931 ft 242 kts 301°
2026-05-07 20:22 -37.87254 -57.71460 3265 ft 247 kts 301°
2026-05-07 20:22 -37.86312 -57.73278 3636 ft 250 kts 308°
2026-05-07 20:23 -37.84882 -57.74533 4085 ft 252 kts 331°
2026-05-07 20:23 -37.83217 -57.75066 4361 ft 251 kts 354°
2026-05-07 20:23 -37.81485 -57.75019 4660 ft 247 kts
2026-05-07 20:23 -37.79789 -57.74857 4955 ft 244 kts
2026-05-07 20:24 -37.78105 -57.74691 5254 ft 241 kts
2026-05-07 20:24 -37.76435 -57.74529 5554 ft 239 kts
2026-05-07 20:24 -37.74785 -57.74371 5852 ft 240 kts
2026-05-07 20:24 -37.73130 -57.74213 6153 ft 240 kts
2026-05-07 20:25 -37.71466 -57.74055 6453 ft 240 kts
2026-05-07 20:25 -37.69826 -57.73901 6749 ft 240 kts
2026-05-07 20:25 -37.68155 -57.73744 7051 ft 240 kts
2026-05-07 20:25 -37.66492 -57.73590 7350 ft 240 kts
2026-05-07 20:26 -37.64851 -57.73438 7647 ft 240 kts
2026-05-07 20:26 -37.63183 -57.73284 7949 ft 240 kts
2026-05-07 20:26 -37.61520 -57.73132 8249 ft 239 kts
2026-05-07 20:26 -37.59866 -57.72982 8549 ft 239 kts
2026-05-07 20:27 -37.58221 -57.72834 8848 ft 238 kts
2026-05-07 20:27 -37.56573 -57.72686 9147 ft 239 kts
2026-05-07 20:27 -37.54873 -57.72536 9455 ft 251 kts
2026-05-07 20:27 -37.53115 -57.72381 9761 ft 260 kts
2026-05-07 20:28 -37.51277 -57.72219 10068 ft 268 kts
2026-05-07 20:28 -37.49406 -57.72056 10372 ft 274 kts
2026-05-07 20:28 -37.47493 -57.71891 10676 ft 278 kts
2026-05-07 20:28 -37.45558 -57.71726 10978 ft 282 kts
2026-05-07 20:29 -37.43586 -57.71560 11282 ft 285 kts
2026-05-07 20:29 -37.41633 -57.71396 11580 ft 287 kts
2026-05-07 20:29 -37.39629 -57.71228 11884 ft 288 kts
2026-05-07 20:29 -37.37623 -57.71062 12186 ft 289 kts
2026-05-07 20:30 -37.35620 -57.70903 12487 ft 290 kts
2026-05-07 20:30 -37.33622 -57.70746 12787 ft 291 kts
2026-05-07 20:30 -37.31601 -57.70587 13089 ft 291 kts
2026-05-07 20:30 -37.29608 -57.70432 13387 ft 291 kts
2026-05-07 20:31 -37.27575 -57.70272 13691 ft 291 kts
2026-05-07 20:31 -37.25573 -57.70116 13990 ft 291 kts
2026-05-07 20:31 -37.23562 -57.69959 14291 ft 291 kts
2026-05-07 20:31 -37.21569 -57.69803 14590 ft 291 kts
2026-05-07 20:32 -37.19577 -57.69648 14888 ft 290 kts
2026-05-07 20:32 -37.17569 -57.69491 15189 ft 290 kts
2026-05-07 20:32 -37.15565 -57.69335 15491 ft 290 kts
2026-05-07 20:32 -37.13558 -57.69179 15793 ft 289 kts
2026-05-07 20:33 -37.11548 -57.69022 16096 ft 289 kts
2026-05-07 20:33 -37.09570 -57.68869 16395 ft 288 kts
2026-05-07 20:33 -37.07574 -57.68713 16697 ft 288 kts
2026-05-07 20:33 -37.05578 -57.68559 17000 ft 287 kts
2026-05-07 20:34 -37.03595 -57.68404 17301 ft 287 kts
2026-05-07 20:34 -37.01606 -57.68250 17604 ft 287 kts
2026-05-07 20:34 -36.99609 -57.68166 17908 ft 285 kts 355°
2026-05-07 20:34 -36.97638 -57.68317 18213 ft 284 kts 353°
2026-05-07 20:35 -36.95685 -57.68509 18515 ft 283 kts 352°
2026-05-07 20:35 -36.93732 -57.68713 18818 ft 283 kts 352°
2026-05-07 20:35 -36.92435 -57.68850 19020 ft 282 kts 352°
2026-05-07 20:35 -36.90495 -57.69056 19322 ft 282 kts 352°
2026-05-07 20:36 -36.87884 -57.69335 19725 ft 281 kts 352°
2026-05-07 20:36 -36.84028 -57.69746 20321 ft 279 kts 352°
2026-05-07 20:36 -36.82750 -57.69883 20519 ft 279 kts 351°
2026-05-07 20:37 -36.80196 -57.70155 20917 ft 277 kts 351°
2026-05-07 20:37 -36.79541 -57.70225 21020 ft 277 kts 351°
2026-05-07 20:37 -36.76362 -57.70564 21519 ft 275 kts 351°
2026-05-07 20:38 -36.75107 -57.70698 21717 ft 275 kts 351°
2026-05-07 20:39 -36.66342 -57.71630 23115 ft 269 kts 350°
2026-05-07 20:39 -36.61407 -57.72154 23918 ft 266 kts 350°
2026-05-07 20:39 -36.59575 -57.72349 24219 ft 264 kts 349°
2026-05-07 20:40 -36.57757 -57.72542 24510 ft 263 kts 349°
2026-05-07 20:40 -36.55922 -57.72739 24584 ft 271 kts 349°
2026-05-07 20:40 -36.54024 -57.72942 24591 ft 280 kts 350°
2026-05-07 20:40 -36.52066 -57.73150 24592 ft 288 kts 350°
2026-05-07 20:41 -36.50034 -57.73365 24591 ft 295 kts 350°
2026-05-07 20:41 -36.48671 -57.73509 24591 ft 299 kts 350°
2026-05-07 20:41 -36.47295 -57.73654 24591 ft 303 kts 350°
2026-05-07 20:41 -36.44243 -57.73976 24590 ft 309 kts 350°
2026-05-07 20:42 -36.42095 -57.74203 24590 ft 312 kts 350°
2026-05-07 20:43 -36.32657 -57.75198 24590 ft 321 kts 351°
2026-05-07 20:43 -36.30422 -57.75434 24590 ft 322 kts 351°
2026-05-07 20:43 -36.28927 -57.75591 24590 ft 323 kts 351°
2026-05-07 20:43 -36.26709 -57.75824 24590 ft 324 kts 351°
2026-05-07 20:44 -36.24464 -57.76060 24589 ft 325 kts 351°
2026-05-07 20:44 -36.21473 -57.76375 24590 ft 326 kts 351°
2026-05-07 20:44 -36.19210 -57.76613 24590 ft 326 kts 351°
2026-05-07 20:44 -36.16953 -57.76849 24590 ft 326 kts 351°
2026-05-07 20:45 -36.14697 -57.77086 24590 ft 327 kts 351°
2026-05-07 20:45 -36.12440 -57.77323 24590 ft 327 kts 351°
2026-05-07 20:45 -36.10953 -57.77479 24590 ft 327 kts 351°
2026-05-07 20:45 -36.09448 -57.77636 24590 ft 327 kts 351°
2026-05-07 20:46 -36.02205 -57.78395 24590 ft 328 kts 351°
2026-05-07 20:46 -36.00680 -57.78554 24590 ft 328 kts 351°
2026-05-07 20:47 -35.96905 -57.78949 24590 ft 328 kts 351°
2026-05-07 20:47 -35.94661 -57.79183 24590 ft 328 kts 351°
2026-05-07 20:47 -35.92394 -57.79419 24590 ft 328 kts 351°
2026-05-07 20:47 -35.90112 -57.79657 24590 ft 328 kts 351°
2026-05-07 20:48 -35.87854 -57.79893 24588 ft 328 kts 351°
2026-05-07 20:48 -35.85590 -57.80129 24588 ft 328 kts 351°
2026-05-07 20:48 -35.83332 -57.80364 24588 ft 328 kts 351°
2026-05-07 20:48 -35.81060 -57.80600 24588 ft 328 kts 351°
2026-05-07 20:49 -35.78814 -57.80833 24588 ft 328 kts 351°
2026-05-07 20:49 -35.76516 -57.81073 24588 ft 328 kts 351°
2026-05-07 20:49 -35.74270 -57.81306 24588 ft 328 kts 351°
2026-05-07 20:49 -35.71999 -57.81541 24588 ft 328 kts 351°
2026-05-07 20:50 -35.69746 -57.81775 24588 ft 328 kts 351°
2026-05-07 20:50 -35.67456 -57.82013 24588 ft 328 kts 351°
2026-05-07 20:50 -35.65198 -57.82247 24588 ft 328 kts 351°
2026-05-07 20:50 -35.62950 -57.82480 24588 ft 328 kts 351°
2026-05-07 20:51 -35.60659 -57.82717 24588 ft 328 kts 351°
2026-05-07 20:51 -35.58411 -57.82949 24588 ft 328 kts 351°
2026-05-07 20:51 -35.56132 -57.83185 24588 ft 328 kts 351°
2026-05-07 20:51 -35.53872 -57.83425 24588 ft 328 kts 350°
2026-05-07 20:52 -35.51659 -57.83673 24338 ft 317 kts 350°
2026-05-07 20:52 -35.49480 -57.83924 23789 ft 315 kts 350°
2026-05-07 20:52 -35.47307 -57.84174 23240 ft 314 kts 350°
2026-05-07 20:52 -35.45134 -57.84423 22689 ft 313 kts 351°
2026-05-07 20:53 -35.42983 -57.84670 22142 ft 312 kts 351°
2026-05-07 20:53 -35.40835 -57.84916 21593 ft 311 kts 351°
2026-05-07 20:53 -35.38708 -57.85159 21049 ft 310 kts 351°
2026-05-07 20:53 -35.36563 -57.85405 20499 ft 309 kts 351°
2026-05-07 20:54 -35.34427 -57.85649 19949 ft 308 kts 351°
2026-05-07 20:54 -35.32319 -57.85890 19405 ft 307 kts 352°
2026-05-07 20:54 -35.30203 -57.86131 18857 ft 307 kts 352°
2026-05-07 20:54 -35.28074 -57.86374 18304 ft 306 kts 352°
2026-05-07 20:55 -35.25966 -57.86615 17755 ft 304 kts 352°
2026-05-07 20:55 -35.23896 -57.86851 17212 ft 302 kts 352°
2026-05-07 20:55 -35.21824 -57.87087 16665 ft 301 kts 352°
2026-05-07 20:55 -35.19740 -57.87324 16113 ft 299 kts 353°
2026-05-07 20:56 -35.17704 -57.87556 15570 ft 296 kts 353°
2026-05-07 20:56 -35.15662 -57.87788 15018 ft 293 kts 353°
2026-05-07 20:56 -35.13646 -57.88017 14467 ft 290 kts 353°
2026-05-07 20:56 -35.11659 -57.88243 13920 ft 288 kts 353°
2026-05-07 20:57 -35.09698 -57.88466 13377 ft 286 kts 353°
2026-05-07 20:57 -35.07718 -57.88691 12824 ft 284 kts 353°
2026-05-07 20:57 -35.05765 -57.88913 12275 ft 282 kts 354°
2026-05-07 20:57 -35.03834 -57.89131 11729 ft 280 kts 354°
2026-05-07 20:58 -35.01911 -57.89349 11183 ft 279 kts 353°
2026-05-07 20:58 -35.00003 -57.89565 10637 ft 277 kts 353°
2026-05-07 20:58 -34.98183 -57.90216 10077 ft 272 kts 329°
2026-05-07 20:58 -34.96739 -57.91650 9529 ft 267 kts 314°
2026-05-07 20:59 -34.95464 -57.93241 9205 ft 257 kts 312°
2026-05-07 20:59 -34.94255 -57.94814 8954 ft 254 kts 311°
2026-05-07 20:59 -34.93080 -57.96363 8707 ft 251 kts 311°
2026-05-07 20:59 -34.91895 -57.97936 8455 ft 250 kts 311°
2026-05-07 21:00 -34.90592 -57.99299 8203 ft 249 kts 322°
2026-05-07 21:00 -34.89162 -58.00524 7950 ft 248 kts 324°
2026-05-07 21:00 -34.87749 -58.01708 7701 ft 247 kts 324°
2026-05-07 21:00 -34.86344 -58.02877 7453 ft 247 kts 324°
2026-05-07 21:01 -34.84931 -58.04048 7203 ft 246 kts 324°
2026-05-07 21:01 -34.83515 -58.05222 6985 ft 245 kts 324°
2026-05-07 21:01 -34.82104 -58.06389 6810 ft 245 kts 324°
2026-05-07 21:01 -34.80696 -58.07553 6635 ft 246 kts 324°
2026-05-07 21:02 -34.79287 -58.08718 6461 ft 246 kts 324°
2026-05-07 21:02 -34.77883 -58.09878 6286 ft 245 kts 324°
2026-05-07 21:02 -34.76458 -58.11055 6108 ft 244 kts 324°
2026-05-07 21:02 -34.75072 -58.12200 5936 ft 244 kts 324°
2026-05-07 21:03 -34.73667 -58.13356 5760 ft 243 kts 324°
2026-05-07 21:03 -34.72266 -58.14510 5583 ft 243 kts 324°
2026-05-07 21:03 -34.70872 -58.15660 5409 ft 242 kts 324°
2026-05-07 21:03 -34.69485 -58.16802 5249 ft 241 kts 324°
2026-05-07 21:04 -34.68101 -58.17942 5099 ft 240 kts 324°
2026-05-07 21:04 -34.66727 -58.19074 4949 ft 240 kts 324°
2026-05-07 21:04 -34.65338 -58.20217 4797 ft 239 kts 324°
2026-05-07 21:04 -34.63965 -58.21347 4646 ft 239 kts 324°
2026-05-07 21:05 -34.62588 -58.22481 4496 ft 238 kts 324°
2026-05-07 21:05 -34.61235 -58.23591 4347 ft 238 kts 324°
2026-05-07 21:05 -34.59852 -58.24728 4194 ft 238 kts 324°
2026-05-07 21:05 -34.58500 -58.25839 4046 ft 238 kts 324°
2026-05-07 21:06 -34.57124 -58.26968 3893 ft 236 kts 324°
2026-05-07 21:06 -34.55789 -58.28064 3742 ft 230 kts 324°
2026-05-07 21:06 -34.54484 -58.29136 3588 ft 224 kts 324°
2026-05-07 21:06 -34.53196 -58.30191 3435 ft 221 kts 324°
2026-05-07 21:07 -34.51942 -58.31219 3283 ft 218 kts 323°
2026-05-07 21:07 -34.50691 -58.32244 3128 ft 212 kts 324°
2026-05-07 21:07 -34.49496 -58.33223 2977 ft 207 kts 323°
2026-05-07 21:07 -34.48302 -58.34200 2823 ft 205 kts 323°
2026-05-07 21:08 -34.47140 -58.35155 2674 ft 202 kts 324°
2026-05-07 21:08 -34.45987 -58.36096 2522 ft 200 kts 324°
2026-05-07 21:08 -34.44838 -58.37036 2369 ft 198 kts 324°
2026-05-07 21:08 -34.43698 -58.37968 2216 ft 195 kts 323°
2026-05-07 21:09 -34.42588 -58.38876 2079 ft 193 kts 323°
2026-05-07 21:09 -34.41494 -58.39771 2052 ft 185 kts 324°
2026-05-07 21:09 -34.40448 -58.40623 2048 ft 178 kts 323°
2026-05-07 21:09 -34.39435 -58.41449 2050 ft 174 kts 322°
2026-05-07 21:10 -34.38461 -58.42247 2131 ft 157 kts 323°
2026-05-07 21:10 -34.37595 -58.42949 2053 ft 142 kts 322°
2026-05-07 21:10 -34.36820 -58.43581 2045 ft 124 kts 323°
2026-05-07 21:10 -34.36151 -58.44127 2041 ft 108 kts 322°
2026-05-07 21:11 -34.35552 -58.44614 2045 ft 102 kts 321°
2026-05-07 21:11 -34.34977 -58.45189 2060 ft 112 kts 302°
2026-05-07 21:11 -34.35286 -58.46986 2055 ft 125 kts 233°
2026-05-07 21:12 -34.35881 -58.47771 2054 ft 128 kts 228°
2026-05-07 21:12 -34.36512 -58.48549 2052 ft 129 kts 227°
2026-05-07 21:12 -34.37149 -58.49321 2052 ft 130 kts 227°
2026-05-07 21:12 -34.37803 -58.50100 2036 ft 133 kts 227°
2026-05-07 21:13 -34.38468 -58.50883 1935 ft 133 kts 227°
2026-05-07 21:13 -34.39126 -58.51656 1832 ft 132 kts 226°
2026-05-07 21:13 -34.39780 -58.52423 1730 ft 131 kts 226°
2026-05-07 21:13 -34.40438 -58.53194 1620 ft 130 kts 226°
2026-05-07 21:14 -34.41097 -58.53969 1468 ft 133 kts 227°
2026-05-07 21:14 -34.41762 -58.54749 1318 ft 134 kts 227°
2026-05-07 21:14 -34.42359 -58.55447 1260 ft 104 kts 227°
2026-05-07 21:14 -34.42847 -58.56023 1098 ft 95 kts 228°
2026-05-07 21:15 -34.43314 -58.56572 938 ft 91 kts 228°
2026-05-07 21:15 -34.43760 -58.57088 704 ft 90 kts 226°
2026-05-07 21:15 -34.44202 -58.57563 427 ft 80 kts 228°
2026-05-07 21:15 -34.44568 -58.58001 197 ft 70 kts 230°
2026-05-07 21:16 -34.44883 -58.58400 18 ft 58 kts 233°
2026-05-07 21:16 -34.45126 -58.58695 18 ft 43 kts 223°
2026-05-07 21:16 -34.45315 -58.58911 18 ft 32 kts 223°
2026-05-07 21:16 -34.45457 -58.59081 18 ft 24 kts 229°
2026-05-07 21:17 -34.45567 -58.59209 18 ft 19 kts 230°
2026-05-07 21:17 -34.45655 -58.59301 18 ft 14 kts 186°
2026-05-07 21:17 -34.45741 -58.59255 18 ft 13 kts 148°
2026-05-07 21:17 -34.45795 -58.59219 18 ft 12 kts 152°
2026-05-07 21:18 -34.45820 -58.59119 18 ft 10 kts 65°
2026-05-07 21:18 -34.45790 -58.59049 18 ft 8 kts 60°
2026-05-07 21:18 -34.45763 -58.58987 18 ft 10 kts 63°
2026-05-07 21:18 -34.45725 -58.58895 18 ft 12 kts 62°
2026-05-07 21:19 -34.45681 -58.58797 18 ft 13 kts 63°
2026-05-07 21:19 -34.45686 -58.58717 18 ft 8 kts 144°
2026-05-07 21:19 -34.45691 -58.58713 18 ft 0 kts 144°